Tracking 23582 objects as of 31-Jul-2021
HD Live streaming from Space Station
objects crossing your sky now

RADFXSAT-2 (AO-109)

Track RADFXSAT-2 (AO-109) now!
10-day predictions
RADFXSAT-2 (AO-109) is classified as:


NORAD ID: 47311
Int'l Code: 2021-002C
Perigee: 479.6 km
Apogee: 535.6 km
Inclination: 60.7 °
Period: 94.6 minutes
Semi major axis: 6878 km
RCS: Unknown
Launch date: January 17, 2021
Source: United States (US)
Launch site: Pegasus launched from Western Range Air Space (WRAS)

Uplink (MHz): 145.860-145.890
Downlink (MHz): 435.790-435.760
Beacon (MHz): 435.750
Mode: 1200bps BPSK
Call sign:
Status: Inactive

aabbcc
Your satellite tracking list
Your tracking list is empty




NASA's NSSDC Master Catalog

Two Line Element Set (TLE):
1 47311U 21002C   21211.78970237  .00002099  00000-0  10192-3 0  9997
2 47311  60.6850 128.9530 0040712  70.4273 290.1203 15.21795563 29460
Source of the keplerian elements: AFSPC